Location: Newark
(27.9675°N, 86.8869°E)
Time: 12:20:22
(UTC+00:00)

Vanguard 3 - Pass Details

Date: 25 October 2019
Orbit: 508 x 3263 km, 33.4° (Epoch: 18 November)

Event Time Altitude Azimuth Distance (km) Brightness Sun altitude
Rises 15:12:27 0° 245° (WSW) 4,418 11.4 -48.6°
Reaches altitude 10° 15:16:06 10° 244° (WSW) 3,014 10.4 -49.4°
Enters shadow 15:16:33 12° 244° (WSW) 2,839 10.2 -49.5°
Maximum altitude 15:22:52 78° 159° (SSE) 773 - -50.8°
Drops below altitude 10° 15:27:06 10° 73° (ENE) 1,923 - -51.7°
Sets 15:29:00 0° 71° (ENE) 2,707 - -52.1°
